Regional Weather Roundup
Issued by NWS

Home | Current Version | Previous Version | Graphics & Text | Print | Product List | Glossary On
Versions: 1 2 3 4 5 6 7 8 9 10 11 12 13 14 15 16 17 18 19 20 21 22 23 24 25 26 27 28 29 30 31 32 33 34 35 36 37 38 39 40 41 42 43 44 45 46 47 48 49 50
000
ASUS45 KBOU 290010
RWRCO

WEATHER ROUNDUP FOR COLORADO
NATIONAL WEATHER SERVICE DENVER/BOULDER CO
600 PM MDT WED SEP 28 2016

NOTE: "FAIR" INDICATES FEW OR NO CLOUDS BELOW 12000 FEET WITH NO
SIGNIFICANT WEATHER AND/OR OBSTRUCTIONS TO VISIBILITY.

COZ001>005-013-030-031-290100-
...NORTHWEST COLORADO...

CITY           SKY/WX    TMP DP  RH WIND       PRES   REMARKS
CRAIG          FAIR      79  29  16 W6        30.25F
HAYDEN         FAIR      75  30  19 N5        30.28S
MEEKER         FAIR      78  28  16 SW5       30.26S
MOUNT WERNER   NOT AVBL
STEAMBOAT SPGS FAIR      76  32  20 W9        30.29S
WALDEN           N/A     70  21  16 NW5       30.40S
$$

COZ006>008-011-290100-
...WEST CENTRAL VALLEYS...

CITY           SKY/WX    TMP DP  RH WIND       PRES   REMARKS
GRAND JUNCTION FAIR      82  35  18 NW9       30.15S
MONTROSE       FAIR      76  38  25 SW6       30.23S
EAGLE          PTCLDY    75  30  19 SE13      30.29S
RIFLE          FAIR      80  32  17 W14       30.19S
DELTA          FAIR      84  29  13 CALM      30.18F
NUCLA          PTSUNNY   77  32  19 CALM      30.28S
$$

COZ017>023-064>068-290100-
...SOUTHWEST COLORADO...

CITY           SKY/WX    TMP DP  RH WIND       PRES   REMARKS
DURANGO        FAIR      74  30  19 W6        30.32S
CORTEZ         FAIR      76  39  26 S13       30.26S
PAGOSA SPRINGS FAIR      72  21  14 SW3       30.40R
TELLURIDE      NOT AVBL
WOLF CREEK PAS CLOUDY    48  27  43 SW12G17   30.71S
$$

COZ009-010-012-014-032>034-037-058>063-290100-
...CENTRAL COLORADO...

CITY           SKY/WX    TMP DP  RH WIND       PRES   REMARKS
ASPEN          FAIR      72  30  21 VRB6      30.34S
BUENA VISTA    FAIR      69  23  17 S8        30.42R
COPPER MTN     FAIR      55  16  21 SE24      30.69S
BERTHOUD PASS  FAIR      41  28  60 E35G41    30.74R
COTTONWOOD PAS FAIR      63  19  19 SE13G21   30.56S
GUNNISON       FAIR      71  24  17 SE13      30.37R HAZE
KREMMLING      FAIR      73  18  12 SE3       30.35R
LEADVILLE      FAIR      59  18  20 SE6       30.53R
MONARCH PASS   FAIR      54  19  26 CALM      30.81S
SALIDA         FAIR      73  27  17 SE18      30.46S
SUNLIGHT       FAIR      59  28  31 W5        30.62S
WILKERSON PASS FAIR      57  19  23 S5        30.70S
$$

COZ069>075-290100-
...SAN LUIS VALLEY/SANGRE DE CRISTO MOUNTAINS...

CITY           SKY/WX    TMP DP  RH WIND       PRES   REMARKS
ALAMOSA        FAIR      73  24  16 SE7       30.38R
LA VETA PASS   NOT AVBL
SAGUACHE       NOT AVBL
$$

COZ035-036-038>040-290100-
...NORTHERN COLORADO FRONT RANGE...

CITY           SKY/WX    TMP DP  RH WIND       PRES   REMARKS
DENVER INTL AP FAIR      78  30  17 E15       30.28S
DMNS CITY PARK   N/A     77  29  17 E7G13     30.27S
AURORA         PTCLDY    78  30  17 E14       30.30R
FRONT RANGE AP PTCLDY    81  28  15 N13G22    30.31S
ERIE MUNI ARPT FAIR      80  24  12 E7        30.27S
BOULDER MUN AP FAIR      79  30  17 NE3       30.28S
CENTENNIAL     FAIR      78  26  14 S14       30.30R
BROOMFIELD     PTCLDY    79  28  15 E7        30.31S
FORT COLLINS   FAIR      79  34  19 E13       30.25S
LONGMONT       FAIR      80  33  18 NE7       30.29S
$$

COZ041-046-047-076>085-087-088-290100-
...PIKES PEAK/PALMER DIVIDE AND SOUTHERN FOOTHILLS...

CITY           SKY/WX    TMP DP  RH WIND       PRES   REMARKS
COLO. SPRINGS  MOCLDY    74  28  18 S14       30.36S
A. F. ACADEMY  FAIR      72  28  19 SE12      30.37R
SCHRIEVER AFB  NOT AVBL
ELLICOTT       NOT AVBL
FALCON         FAIR      70  28  20 S7        30.42S
FORT CARSON    FAIR      74  29  18 SE9       30.33S
LIMON          FAIR      77  32  19 E12       30.32R
MONUMENT HILL  FAIR      70  28  21 SE7G20    30.42R
TRINIDAD       FAIR      78  28  16 SE7       30.32R
$$

COZ042>045-048>051-090-091-290100-
...NORTHEAST COLORADO...

CITY           SKY/WX    TMP DP  RH WIND       PRES   REMARKS
GREELEY ARPT   FAIR      79  36  21 E9        30.28S
AKRON          FAIR      77  37  23 E9        30.30R
BURLINGTON     FAIR      77  40  26 E9        30.28R
WRAY           NOT AVBL
STERLING       FAIR      77  39  25 NE6       30.26S
HOLYOKE        FAIR      79  37  22 E8        30.28R
FORT MORGAN    FAIR      77  33  20 E10       30.29S
$$

COZ086-089-092>099-290100-
...SOUTHEAST COLORADO...

CITY           SKY/WX    TMP DP  RH WIND       PRES   REMARKS
PUEBLO         FAIR      82  30  15 E12       30.25S
LA JUNTA       FAIR      82  34  17 E12       30.25R
LAMAR          FAIR      80  37  21 E6        30.21R
SPRINGFIELD      N/A     78  35  21 E10       30.26R
$$



USA.gov is the U.S. government's official web portal to all federal, state and local government web resources and services.